DECAYED

OBJECT D, 53387 (Decayed)

Orbit data source: Space-Track

You're viewing an Uncataloged Satellite

Recently launched and/or uncataloged satellites may have evolving metadata. Metadata may include but not limited to: Owner, Maufacturer, Bus, Motor, and Mission.

OBJECT D, 53387 was a satellite owned by Xinghe Dongli (CN) in LEO that was launched on Tue, 09 Aug 2022 UTC launched from the Jiuquan Satellite Launch Center, China (JSC). Unknown objects in Earth's orbit typically refer to objects detected orbiting the Earth but have not yet been identified or cataloged. These objects could be anything from previously untracked satellites, spent rocket stages, debris from satellite collisions, or even natural meteoroids temporarily captured by Earth's gravity. This object's orbit decayed before it could be identified.

Not visible in the next 10 days
Identifier
53387, 2022-095D
Orbit
Decayed
Country
Flag of CNCN / PRC
Related business
Flag of CNGalactic Energy Co. (CN)
Manufacturer
Xinghe Dongli
Mission
Decayed spacecraft
Bus & Motor
EDGE, EDGE
Mass
~150 kg wet, ~150 kg dry
Launch date (UTC)
2022-08-09 (4 years ago)
Launch vehicle
Unknown
Launch site
Jiuquan Satellite Launch Center, China (JSC)
Object type
Unknown
Shape & HBR
Cyl, 0.6 m
Radar Cross Section
1.602 m², Large (>1 m²)

Expand to show TLE details & history
Last TLE update: 1 year ago

TLE from 1 year ago
0 OBJECT D
1 53387U 22095D   25034.31389506  .22620994  27936-5  20653-3 0  9998
2 53387  97.2782 133.4632 0006618 217.2595 217.2620 16.51636382140182
Epoch: 2025-02-03T07:32Z
TLE epoch observation values (Epoch: 2025-02-03T07:32:00.533Z)
Latitude
72.96734°
Longitude
-137.76137°
Altitude
151.036 km
Speed
7.82 km/s
True Right ascension
07h 15m 54s
True Declination
72° 51' 42"
Sunlit
Object was in full shadow at epoch
Visualization orbit readout
Latitude
Unknown
Longitude
Unknown
Altitude
Unknown
Speed
Unknown
Apparent Right ascension
Unknown
Apparent Declination
Unknown
Sunlit
N/A
Visualization observer readout
Local Sidereal Time
21:35:09
Azimuth
Unknown
Elevation
Unknown
Doppler factor
Unknown
Orbital elements
Apogee altitude
136.125 km
Perigee altitude
127.509 km
Semi-major axis
6,509.954 km
Eccentricity
0.00066
Inclination
97.2782°
RAAN
133.4632°
Arg. of periapsis
217.2595°
True anomaly
217.21611°
Mean anomaly
217.262°
Eccentric anomaly
217.23905°
Mean motion
4.13215 °/min
Orbital period
87.12 mins
BSTAR
0.00020653
Loading maneuver chart data...
Computing Atmospheric mass density...
Loading historical data...
Loading historical data...
Loading historical data...
Loading historical data...
Loading historical data...
Loading historical data...
Loading historical data...
Other satellites on launch #95 in the year 2022 (2022-08-09 UTC)

Documentation

Showing up to 5 results
|